RH
4 4 4 4 4 4 4 5 6 6 6 7 7 7 7 6 6 4 3 4 6 6 4 4 4 3 15 26 34 38 39 34 28 26 25 24 23 24 21 21 19 18 17 17 20
4 4 4 4 4 4 4 5 6 6 6 5 4 4 4 5 6 6 8 5 5 8 8 6 5 5 8 23 37 39 39 36 31 30 31 32 30 29 28 26 22 20 20 22 24
4 4 4 4 4 5 7 8 8 6 5 4 3 3 3 2 3 3 4 8 6 6 10 9 9 14 17 27 35 34 33 33 33 34 35 39 34 32 31 28 24 24 25 26 27
5 4 5 6 7 8 9 10 6 5 4 4 3 3 3 4 3 6 10 10 10 10 19 14 11 21 56 49 41 37 34 35 36 38 37 38 39 34 30 28 27 28 27 28 28
5 6 7 9 10 11 11 8 6 6 4 4 4 4 3 4 3 7 10 11 15 20 13 16 22 33 64 55 51 49 44 41 42 45 44 41 41 40 37 33 31 32 33 34 34
6 7 8 10 12 13 12 9 8 7 6 5 4 5 5 4 6 6 6 7 13 17 14 20 20 45 68 70 57 52 51 48 46 50 52 50 46 46 42 40 38 40 40 39 37
8 8 10 14 15 15 13 11 10 9 8 6 6 7 6 4 6 7 9 9 22 23 37 48 45 61 98 91 76 62 60 54 50 56 55 53 46 41 43 45 46 45 46 44 42
9 10 14 15 16 16 16 14 11 8 6 6 7 8 5 6 8 16 14 9 22 31 56 59 79 97 85 85 69 66 67 63 58 56 58 55 43 44 37 33 37 39 41 39 37
10 12 15 17 17 17 15 10 8 6 5 9 12 11 10 21 32 46 41 16 40 52 71 95 90 87 78 79 76 76 72 67 65 60 56 53 48 42 35 33 37 35 36 40 40
13 16 17 18 18 17 14 9 6 6 9 21 31 29 37 51 51 73 94 70 73 79 93 98 100 97 91 88 88 86 82 77 68 56 48 47 51 47 46 43 33 38 38 42 43
17 18 19 19 19 16 10 6 5 9 14 44 85 95 92 77 50 88 95 99 67 59 94 100 98 97 74 89 90 80 83 78 67 58 65 71 70 50 64 60 59 52 52 44 49
19 19 19 20 20 12 10 9 21 55 29 69 97 99 90 88 49 58 97 86 88 95 95 97 97 88 81 97 97 92 83 88 85 81 89 79 75 60 74 72 72 61 60 59 56
21 21 21 21 16 10 10 12 31 51 56 63 72 76 69 80 85 65 92 96 96 96 96 95 92 83 79 84 91 92 90 90 80 93 76 77 80 67 69 79 74 74 66 61 58
23 23 23 19 12 8 11 13 52 60 73 62 71 69 83 66 88 96 67 97 99 88 83 87 91 86 89 80 82 89 90 86 91 94 87 81 81 64 62 70 72 69 67 63 60
26 26 24 12 9 15 15 23 56 71 80 65 63 68 97 93 91 98 84 95 95 96 93 80 85 97 98 85 89 93 85 97 98 99 96 81 74 66 53 52 55 60 62 62 61
29 27 16 10 11 16 21 39 58 74 67 71 59 68 58 85 93 98 97 95 94 95 91 82 98 95 87 91 97 95 93 97 98 97 97 82 76 68 55 46 53 51 54 56 54
31 20 12 9 11 17 28 52 66 73 73 78 66 62 69 85 94 97 98 96 95 97 90 83 95 92 95 96 100 97 92 96 96 98 93 84 83 65 50 49 44 46 54 54 55
27 15 12 12 14 22 40 58 71 90 92 71 68 57 76 88 88 92 98 95 90 96 87 94 98 94 96 96 88 97 92 72 88 98 86 84 87 48 54 56 68 64 60 68 65
20 13 13 14 19 31 42 75 96 97 100 89 67 75 82 87 98 94 99 100 94 96 94 99 96 86 86 96 83 92 95 77 73 99 98 82 75 52 63 54 69 68 60 55 48
17 12 15 19 22 36 53 87 95 98 97 92 97 93 97 90 91 98 97 98 98 96 96 95 83 96 91 98 98 90 81 85 81 100 100 77 72 58 56 59 58 64 68 62 52
17 15 22 20 25 33 66 83 83 97 99 98 89 90 91 95 96 96 96 96 94 100 93 87 94 98 92 94 89 94 92 83 74 72 90 94 65 55 52 56 66 64 63 63 56
19 22 29 22 24 38 67 83 82 90 96 97 93 92 97 93 97 96 97 97 99 98 98 97 95 96 95 91 94 93 81 80 71 99 100 91 63 52 55 56 58 64 57 52 47
19 30 40 27 28 41 47 78 89 89 95 93 93 99 92 96 96 93 92 97 96 97 97 96 91 97 96 92 92 95 80 78 71 76 86 84 64 61 57 59 60 58 55 53 52
32 42 51 47 36 58 53 62 86 89 95 95 99 94 88 94 98 96 88 94 96 96 98 94 92 80 75 72 80 83 80 78 75 74 77 79 65 60 60 65 70 67 66 67 68
42 60 65 62 43 40 58 78 85 86 80 95 97 100 97 97 94 97 89 90 94 98 97 94 88 80 70 79 90 88 79 79 78 78 76 71 68 66 67 71 73 77 77 75 73
46 70 66 65 65 40 33 90 88 79 93 93 98 93 100 100 98 96 97 93 95 84 81 90 82 89 91 93 91 92 89 89 87 83 80 77 74 69 67 71 78 85 79 72 67
60 74 67 61 69 49 54 78 88 98 85 92 94 97 89 95 96 98 98 95 95 90 84 80 77 77 68 78 73 65 66 73 73 71 67 66 60 66 68 71 74 76 75 74 75
Wind_Speed
31 33 34 36 37 37 38 38 38 37 36 35 35 35 37 36 36 36 36 30 34 32 33 29 27 27 28 30 29 28 31 33 32 29 27 20 21 18 24 24 24 22 18 14 13
34 35 36 37 38 39 39 39 38 37 36 37 37 37 38 39 39 34 29 30 33 34 36 33 30 29 30 32 33 32 37 35 30 27 23 15 19 21 23 25 25 23 21 18 15
36 38 39 40 39 39 38 36 35 36 37 38 39 38 38 39 40 36 35 31 29 35 36 35 33 32 34 34 36 37 40 33 30 27 23 19 19 21 26 26 24 21 21 18 17
38 40 41 41 41 41 39 36 35 37 38 38 40 40 39 37 33 22 22 22 22 22 21 33 39 37 37 38 38 38 38 32 30 28 22 21 20 21 24 26 25 22 21 21 19
40 40 41 40 39 39 38 36 36 37 39 40 40 39 41 40 36 23 31 29 26 23 22 23 27 37 37 37 37 38 37 31 29 28 27 24 23 24 25 26 26 25 22 21 18
41 40 40 41 41 41 40 39 40 41 42 42 41 40 42 43 31 27 26 25 34 34 34 27 25 29 30 34 30 33 34 32 30 26 28 29 30 30 29 27 28 27 25 23 21
41 41 40 38 39 41 41 41 42 43 45 43 41 40 45 38 31 30 30 23 25 33 31 26 24 26 29 22 30 25 20 24 31 30 28 26 30 34 27 27 29 29 27 25 25
40 40 39 40 41 43 43 44 45 45 46 43 37 34 42 31 30 24 24 27 26 30 29 21 20 24 20 27 13 25 22 23 20 25 27 25 34 22 17 26 27 28 29 28 26
40 40 39 40 44 46 47 47 48 48 45 33 32 34 30 15 14 12 14 23 27 30 26 23 22 25 22 21 20 21 16 25 25 19 21 22 22 13 16 24 20 18 27 27 26
39 40 40 42 46 48 51 53 50 45 36 36 21 23 16 13 17 14 14 17 32 29 27 27 27 30 32 28 22 17 23 13 9 12 23 27 32 24 17 14 20 27 22 21 25
38 39 42 44 47 50 52 54 52 44 38 19 11 13 16 17 25 11 12 16 25 33 30 31 29 34 39 35 30 5 20 19 19 18 17 17 17 17 17 16 12 13 24 23 19
38 41 44 45 48 48 47 45 38 34 37 11 12 13 18 22 15 18 15 14 25 32 31 25 30 30 28 28 30 30 24 15 9 10 11 14 13 15 22 20 16 14 14 16 18
39 41 43 45 47 44 42 38 30 27 19 15 18 17 25 22 18 6 14 21 28 24 24 24 10 25 24 24 26 26 24 19 13 6 10 12 15 19 22 25 24 22 19 19 19
40 42 43 46 46 42 38 32 23 21 11 19 20 19 28 19 10 14 13 18 27 26 23 19 25 15 25 28 21 21 18 17 15 15 8 6 5 10 24 24 26 26 25 25 24
40 42 43 43 42 37 34 25 19 14 5 13 22 20 19 13 9 10 11 12 27 26 25 13 16 17 15 24 21 15 14 12 16 17 11 7 5 6 20 20 23 29 32 32 32
39 42 41 39 35 33 28 20 19 5 4 11 20 21 19 20 10 9 8 5 14 11 18 7 9 3 5 14 16 15 14 10 8 6 2 10 11 7 12 16 20 20 18 18 18
39 40 38 37 35 30 24 18 6 3 13 15 27 19 18 24 12 5 9 4 9 14 18 17 13 6 9 13 19 19 17 3 2 1 4 4 11 18 6 9 13 20 15 17 17
38 37 33 32 30 25 19 15 4 12 16 22 23 15 14 22 12 11 4 5 13 8 20 14 7 10 14 19 12 23 18 6 6 3 3 6 7 5 17 17 8 13 15 13 14
36 32 29 27 25 21 18 6 8 12 16 21 18 15 16 21 18 14 4 6 7 12 2 10 7 17 14 17 17 17 10 7 7 4 1 5 7 11 10 15 16 11 11 12 13
36 31 27 25 23 21 18 7 15 9 12 13 12 11 21 24 19 17 6 4 7 15 13 6 6 16 17 15 16 14 19 7 5 3 3 4 6 10 2 8 19 16 14 12 12
31 28 26 24 19 18 17 17 17 13 10 8 13 15 19 23 20 10 8 5 5 6 17 18 7 14 18 13 17 15 18 8 9 3 5 1 4 2 4 7 9 11 11 11 11
28 22 23 18 18 18 17 17 18 14 8 7 12 15 16 22 11 12 11 11 2 7 9 17 11 8 11 13 18 21 13 17 7 5 4 3 2 3 5 7 10 10 9 10 13
28 21 20 20 22 21 16 14 18 18 9 12 11 13 15 14 8 14 11 9 9 6 9 9 8 9 5 7 14 18 17 20 12 8 9 7 2 4 5 1 1 6 10 13 15
26 20 19 21 21 20 21 18 20 16 10 9 9 15 14 11 11 12 12 6 9 8 7 7 11 4 5 3 12 20 25 22 21 11 8 11 6 1 4 11 16 15 15 17 20
23 17 18 20 19 19 19 15 18 24 18 10 8 15 11 11 10 11 11 9 5 6 3 3 2 4 6 5 10 14 20 22 22 20 10 13 15 13 16 17 18 19 20 23 27
19 18 19 17 19 20 19 16 17 20 18 16 13 14 13 11 12 13 12 12 6 6 2 1 2 6 6 7 7 7 11 16 18 19 23 23 24 20 21 21 20 23 26 30 32
18 17 18 19 20 21 18 16 18 19 17 20 16 15 14 11 10 10 11 10 9 7 4 3 3 4 3 7 6 8 15 17 17 19 18 19 19 18 17 18 20 23 25 25 25
Wind_Direction
333 333 332 329 326 325 323 321 319 315 312 308 303 299 294 290 285 281 278 274 262 258 255 253 249 247 244 243 239 233 228 235 239 245 245 242 234 225 222 219 218 225 225 229 235
333 331 330 328 326 323 320 317 313 310 308 306 303 299 296 292 290 288 289 267 258 256 250 251 250 248 239 237 232 228 231 236 239 244 249 240 229 222 219 219 218 222 229 233 234
333 330 328 325 323 319 317 315 312 310 308 306 304 301 298 294 290 290 281 278 264 252 249 246 246 240 237 232 232 232 236 236 238 243 243 237 231 222 219 220 224 226 227 231 233
332 330 331 329 327 322 320 318 316 315 311 310 308 303 300 298 291 282 274 276 280 257 244 245 237 230 227 227 228 230 235 236 236 240 241 231 221 216 217 223 227 228 218 222 231
333 333 332 329 325 322 322 322 318 315 313 311 308 304 300 294 297 289 263 257 251 237 240 265 247 228 226 228 229 232 237 233 236 240 239 235 226 223 222 221 224 229 227 225 229
333 334 333 331 330 327 326 324 321 317 314 312 309 304 298 295 301 292 284 265 245 245 249 255 244 239 234 236 235 239 240 237 236 238 240 241 241 237 228 228 231 235 235 233 232
335 336 336 335 331 327 326 324 321 318 314 312 308 301 295 304 291 282 278 261 243 235 234 237 233 229 231 237 236 236 241 236 234 232 239 242 245 244 243 235 233 237 241 241 240
336 337 339 337 330 327 325 323 321 318 315 314 308 299 294 299 285 278 259 247 234 223 212 211 221 223 222 223 228 231 235 233 230 230 235 241 246 248 250 248 242 240 242 244 243
338 339 340 336 330 328 327 326 323 320 321 321 310 299 300 291 286 284 270 224 211 205 195 191 201 212 217 222 229 231 229 233 238 237 234 238 251 253 250 244 233 238 235 238 236
340 339 337 334 331 330 329 328 326 324 331 325 314 308 309 284 286 275 236 235 200 193 196 204 211 212 212 213 216 223 222 224 213 235 240 244 249 254 256 246 242 229 229 230 232
339 335 336 337 334 332 331 327 325 332 332 334 352 349 346 317 280 230 235 237 229 216 210 210 212 216 217 219 217 198 232 246 256 253 247 244 246 230 233 233 233 227 229 231 227
335 336 338 338 334 335 334 333 337 330 336 17 358 337 340 346 348 224 253 210 190 196 201 205 217 223 225 225 222 230 242 248 277 235 244 241 239 231 223 224 225 219 208 208 213
335 338 337 338 335 336 335 334 334 334 341 10 5 357 349 338 351 300 238 180 200 188 197 206 219 230 227 221 221 229 238 240 222 245 247 258 262 233 227 225 227 229 228 224 222
336 338 337 337 334 338 336 334 335 335 326 356 0 351 342 331 344 338 268 191 180 197 201 217 216 240 222 221 219 223 224 232 230 240 231 227 273 219 227 230 233 235 236 237 239
337 338 338 339 337 339 339 332 332 333 349 351 352 349 357 354 321 333 334 240 192 191 192 186 204 198 189 211 212 218 222 193 212 223 229 224 255 251 240 233 236 240 242 243 246
338 337 340 338 340 340 344 334 329 317 285 351 347 349 360 2 332 299 334 224 171 151 184 171 155 176 216 200 207 197 182 173 197 201 245 215 216 263 239 239 232 235 226 221 224
338 338 340 339 342 342 343 342 323 23 332 332 341 349 357 358 15 330 310 253 179 161 188 194 197 156 192 197 169 181 177 87 72 165 214 166 213 234 216 233 228 222 219 220 217
339 340 341 340 342 345 348 2 325 344 340 340 342 353 0 5 356 1 285 235 223 148 175 180 180 202 194 183 179 189 179 156 173 184 231 207 234 250 234 226 215 210 204 196 201
341 342 341 344 347 354 357 26 344 332 334 341 352 351 352 357 354 345 346 228 245 172 146 173 167 180 187 202 202 187 192 187 105 104 90 215 262 258 231 217 208 192 192 191 198
343 345 341 349 351 350 0 16 347 340 330 342 353 338 335 344 350 353 343 331 235 219 222 192 159 178 177 192 205 198 202 164 172 125 234 282 264 248 270 213 206 212 210 209 214
344 349 346 352 354 348 14 10 351 353 346 0 340 332 337 341 339 10 9 359 266 229 215 216 206 181 182 191 190 173 182 182 175 172 158 218 279 302 224 186 182 201 218 227 237
349 357 348 354 354 8 10 0 354 343 356 11 336 338 336 340 350 4 19 32 336 222 213 202 202 147 184 198 205 208 203 197 176 183 164 140 280 51 94 189 190 208 231 246 255
348 356 357 3 5 360 5 355 0 353 1 348 346 336 335 340 336 351 358 18 31 150 181 145 145 116 161 192 203 203 207 208 209 166 184 154 215 111 196 164 264 268 267 269 273
348 357 358 8 3 355 352 354 355 360 355 354 353 350 350 357 350 343 2 4 5 46 116 154 155 164 179 172 189 206 213 214 219 217 210 212 205 236 254 287 295 291 279 277 279
348 349 355 353 356 355 344 346 351 358 356 355 352 348 349 349 359 353 3 24 24 27 36 70 164 169 171 170 191 215 218 217 218 222 223 250 264 264 268 274 282 286 283 284 285
343 341 345 350 351 344 343 344 350 350 350 353 329 342 333 325 330 336 341 349 12 9 349 240 187 178 173 174 184 190 209 214 223 233 243 257 267 278 282 281 283 278 279 283 287
338 342 343 343 351 344 344 341 346 346 345 338 329 320 324 310 313 317 323 323 320 323 313 279 205 175 197 221 245 267 231 228 235 244 260 268 284 282 279 278 275 276 279 279 280